Погода в Миами-Пладже

Испания     41°00′38″N   0°56′27″E
темп.,
°C
ветер,
м/с
пор.,
м/с
влажн.,
%
обл.,
%
осадки,
мм/ч
давл.,
гПа
погр.,
м
5 августа, чт
чт523:00+23в768020 1.2 1016556
02:00+24в227638 1.2 1016532
05:00+23сз11780 0.0 1015257
08:00+22зсз23745 0.0 1015249
11:00+25юз335521 0.0 1015452
14:00+26ю6670100 0.0 1014595
17:00+25ююз567699 0.0 1012419
20:00+25ююз34768 0.0 1011363
6 августа, пт
пт623:00+25ююз348234 0.0 1011290
02:00+24вюв22832 0.0 1011320
05:00+24всв338348 0.1 1011436
08:00+24св238038 0.3 1011388
11:00+24в668388 0.4 1012675
14:00+24в6779100 0.8 1012776
17:00+24в557987 0.0 1009645
20:00+24в458261 0.0 1008614
7 августа, сб
сб723:00+24в558467 0.1 1008593
02:00+24в558878 0.3 1007544
05:00+24в448391 0.2 1005575
08:00+25вюв228168 0.3 1005259
11:00+27з13645 0.0 1005332
14:00+30зсз810370 0.0 1005424
17:00+30зсз7935100 0.0 1005492
20:00+28зюз355282 0.0 1006274
8 августа, вс
вс823:00+25в45768 0.0 1010215
02:00+24вюв4470100 0.2 1013700
05:00+23ссз1260100 0.1 1013589
08:00+21сз5554100 0.1 1015258
11:00+23зсз3347100 0.0 1016407
14:00+24ю555836 0.0 1017597
17:00+24ю556598 0.0 1016681
20:00+24ю447093 0.0 1016753
9 августа, пн
пн923:00+23вюв347530 0.0 1018687
02:00+23вюв457433 0.0 1018784
05:00+23всв33690 0.0 1018588
08:00+23ссв11640 0.0 1019365
11:00+24вюв22615 0.0 1020540
14:00+25юв33585 0.0 1020572
17:00+25юв33565 0.0 1019484
20:00+25вюв2358100 0.0 1018445